<?xml version='1.0' encoding='UTF-8'?>
<gpx xmlns="http://www.topografix.com/GPX/1/1" creator="www.balnam.be" version="1.1" xmlns:xsi="http://www.w3.org/2001/XMLSchema-instance" xsi:schemaLocation="http://www.topografix.com/GPX/1/1 http://www.topografix.com/GPX/1/1/gpx.xsd">
<trk>
<name>bojen1</name>
<cmt>s</cmt>
<desc>Enines Chemin n°1 </desc>
<link href="https://chemins.be/enines/chemin/1"/><trkseg>
<trkpt lat="50.697654" lon="4.927304"><time>2026-05-10T02:22:11Z</time></trkpt>
<trkpt lat="50.697267" lon="4.928613"><time>2026-05-10T02:32:11Z</time></trkpt>
<trkpt lat="50.696370" lon="4.929492"><time>2026-05-10T02:42:11Z</time></trkpt>
</trkseg></trk>
<trk>
<name>bojen1</name>
<cmt>v</cmt>
<desc>Enines Chemin n°1 </desc>
<link href="https://chemins.be/enines/chemin/1"/><trkseg>
<trkpt lat="50.696370" lon="4.929492"><time>2026-05-10T02:42:11Z</time></trkpt>
<trkpt lat="50.696030" lon="4.930351"><time>2026-05-10T02:52:11Z</time></trkpt>
<trkpt lat="50.695955" lon="4.930571"><time>2026-05-10T03:02:11Z</time></trkpt>
</trkseg></trk>
<trk>
<name>bojen1</name>
<cmt>s</cmt>
<desc>Enines Chemin n°1 </desc>
<link href="https://chemins.be/enines/chemin/1"/><trkseg>
<trkpt lat="50.695955" lon="4.930571"><time>2026-05-10T03:02:11Z</time></trkpt>
<trkpt lat="50.694983" lon="4.932743"><time>2026-05-10T03:12:11Z</time></trkpt>
<trkpt lat="50.693753" lon="4.934728"><time>2026-05-10T03:22:11Z</time></trkpt>
<trkpt lat="50.689978" lon="4.940130"><time>2026-05-10T03:32:11Z</time></trkpt>
</trkseg></trk>
<trk>
<name>bojen1</name>
<cmt>d</cmt>
<desc>Enines Chemin n°1 </desc>
<link href="https://chemins.be/enines/chemin/1"/><trkseg>
<trkpt lat="50.689978" lon="4.940130"><time>2026-05-10T03:32:11Z</time></trkpt>
<trkpt lat="50.689711" lon="4.941838"><time>2026-05-10T03:42:11Z</time></trkpt>
<trkpt lat="50.690087" lon="4.942430"><time>2026-05-10T03:52:11Z</time></trkpt>
</trkseg>
</trk>
<trk>
<name>bojen10</name>
<cmt>v</cmt>
<desc>Enines Chemin n°10 </desc>
<link href="https://chemins.be/enines/chemin/10"/><trkseg>
<trkpt lat="50.687609" lon="4.923779"><time>2026-05-10T02:22:11Z</time></trkpt>
<trkpt lat="50.687007" lon="4.923254"><time>2026-05-10T02:32:11Z</time></trkpt>
<trkpt lat="50.685535" lon="4.922197"><time>2026-05-10T02:42:11Z</time></trkpt>
</trkseg></trk>
<trk>
<name>bojen10</name>
<cmt>b</cmt>
<desc>Enines Chemin n°10 </desc>
<link href="https://chemins.be/enines/chemin/10"/><trkseg>
<trkpt lat="50.685535" lon="4.922197"><time>2026-05-10T02:42:11Z</time></trkpt>
<trkpt lat="50.684856" lon="4.921709"><time>2026-05-10T02:52:11Z</time></trkpt>
</trkseg></trk>
<trk>
<name>bojen10</name>
<cmt>q</cmt>
<desc>Enines Chemin n°10 </desc>
<link href="https://chemins.be/enines/chemin/10"/><trkseg>
<trkpt lat="50.684856" lon="4.921709"><time>2026-05-10T02:52:11Z</time></trkpt>
<trkpt lat="50.684869" lon="4.921027"><time>2026-05-10T03:02:11Z</time></trkpt>
<trkpt lat="50.683707" lon="4.920341"><time>2026-05-10T03:12:11Z</time></trkpt>
</trkseg>
</trk>
<trk>
<name>bojen12</name>
<cmt>v</cmt>
<desc>Enines Chemin n°12 </desc>
<link href="https://chemins.be/enines/chemin/12"/><trkseg>
<trkpt lat="50.687860" lon="4.923366"><time>2026-05-10T02:22:11Z</time></trkpt>
<trkpt lat="50.687670" lon="4.922519"><time>2026-05-10T02:32:11Z</time></trkpt>
<trkpt lat="50.687357" lon="4.922004"><time>2026-05-10T02:42:11Z</time></trkpt>
<trkpt lat="50.686562" lon="4.921435"><time>2026-05-10T02:52:11Z</time></trkpt>
</trkseg>
</trk>
<trk>
<name>bojen13</name>
<cmt>v</cmt>
<desc>Enines Chemin n°13 </desc>
<link href="https://chemins.be/enines/chemin/13"/><trkseg>
<trkpt lat="50.686779" lon="4.924927"><time>2026-05-10T02:22:11Z</time></trkpt>
<trkpt lat="50.686154" lon="4.925630"><time>2026-05-10T02:32:11Z</time></trkpt>
<trkpt lat="50.685533" lon="4.925784"><time>2026-05-10T02:42:11Z</time></trkpt>
<trkpt lat="50.684011" lon="4.926162"><time>2026-05-10T02:52:11Z</time></trkpt>
<trkpt lat="50.683439" lon="4.926296"><time>2026-05-10T03:02:11Z</time></trkpt>
</trkseg>
</trk>
<trk>
<name>bojen14</name>
<cmt>d</cmt>
<desc>Enines Chemin n°14 Chemin de Nodrenge</desc>
<link href="https://chemins.be/enines/chemin/14"/><trkseg>
<trkpt lat="50.695978" lon="4.930561"><time>2026-05-10T02:22:11Z</time></trkpt>
<trkpt lat="50.696584" lon="4.931849"><time>2026-05-10T02:32:11Z</time></trkpt>
<trkpt lat="50.697665" lon="4.933207"><time>2026-05-10T02:42:11Z</time></trkpt>
<trkpt lat="50.697804" lon="4.934185"><time>2026-05-10T02:52:11Z</time></trkpt>
</trkseg>
</trk>
<trk>
<name>bojen15</name>
<cmt>v</cmt>
<desc>Enines Chemin n°15 </desc>
<link href="https://chemins.be/enines/chemin/15"/><trkseg>
<trkpt lat="50.695031" lon="4.932754"><time>2026-05-10T02:22:11Z</time></trkpt>
<trkpt lat="50.695500" lon="4.933505"><time>2026-05-10T02:32:11Z</time></trkpt>
<trkpt lat="50.696118" lon="4.935479"><time>2026-05-10T02:42:11Z</time></trkpt>
<trkpt lat="50.696608" lon="4.937711"><time>2026-05-10T02:52:11Z</time></trkpt>
</trkseg>
</trk>
<trk>
<name>bojen16</name>
<cmt>s</cmt>
<desc>Enines Chemin n°16 </desc>
<link href="https://chemins.be/enines/chemin/16"/><trkseg>
<trkpt lat="50.698628" lon="4.926702"><time>2026-05-10T02:22:11Z</time></trkpt>
<trkpt lat="50.699736" lon="4.926694"><time>2026-05-10T02:32:11Z</time></trkpt>
</trkseg></trk>
<trk>
<name>bojen16</name>
<cmt>v</cmt>
<desc>Enines Chemin n°16 </desc>
<link href="https://chemins.be/enines/chemin/16"/><trkseg>
<trkpt lat="50.699736" lon="4.926694"><time>2026-05-10T02:32:11Z</time></trkpt>
<trkpt lat="50.700286" lon="4.927076"><time>2026-05-10T02:42:11Z</time></trkpt>
</trkseg>
</trk>
<trk>
<name>bojen17</name>
<cmt>v</cmt>
<desc>Enines Chemin n°17 </desc>
<link href="https://chemins.be/enines/chemin/17"/><trkseg>
<trkpt lat="50.696553" lon="4.922583"><time>2026-05-10T02:22:11Z</time></trkpt>
<trkpt lat="50.696499" lon="4.920008"><time>2026-05-10T02:32:11Z</time></trkpt>
<trkpt lat="50.696227" lon="4.918377"><time>2026-05-10T02:42:11Z</time></trkpt>
<trkpt lat="50.695873" lon="4.915883"><time>2026-05-10T02:52:11Z</time></trkpt>
</trkseg>
</trk>
<trk>
<name>bojen19</name>
<cmt>v</cmt>
<desc>Enines Chemin n°19 </desc>
<link href="https://chemins.be/enines/chemin/19"/><trkseg>
<trkpt lat="50.693203" lon="4.920083"><time>2026-05-10T02:22:11Z</time></trkpt>
<trkpt lat="50.694188" lon="4.920384"><time>2026-05-10T02:32:11Z</time></trkpt>
<trkpt lat="50.694874" lon="4.920137"><time>2026-05-10T02:42:11Z</time></trkpt>
<trkpt lat="50.696254" lon="4.918452"><time>2026-05-10T02:52:11Z</time></trkpt>
<trkpt lat="50.697838" lon="4.916918"><time>2026-05-10T03:02:11Z</time></trkpt>
<trkpt lat="50.698646" lon="4.915835"><time>2026-05-10T03:12:11Z</time></trkpt>
</trkseg></trk>
<trk>
<name>bojen19</name>
<cmt>d</cmt>
<desc>Enines Chemin n°19 </desc>
<link href="https://chemins.be/enines/chemin/19"/><trkseg>
<trkpt lat="50.698646" lon="4.915835"><time>2026-05-10T03:12:11Z</time></trkpt>
<trkpt lat="50.700182" lon="4.914891"><time>2026-05-10T03:22:11Z</time></trkpt>
<trkpt lat="50.702037" lon="4.911457"><time>2026-05-10T03:32:11Z</time></trkpt>
</trkseg>
</trk>
<trk>
<name>bojen20</name>
<cmt>v</cmt>
<desc>Enines Chemin n°20 </desc>
<link href="https://chemins.be/enines/chemin/20"/><trkseg>
<trkpt lat="50.693189" lon="4.925437"><time>2026-05-10T02:22:11Z</time></trkpt>
<trkpt lat="50.693930" lon="4.925008"><time>2026-05-10T02:32:11Z</time></trkpt>
<trkpt lat="50.693624" lon="4.924139"><time>2026-05-10T02:42:11Z</time></trkpt>
<trkpt lat="50.693862" lon="4.922669"><time>2026-05-10T02:52:11Z</time></trkpt>
</trkseg>
</trk>
<trk>
<name>bojen21</name>
<cmt>v</cmt>
<desc>Enines Sentier n°21 Vieux chemin de Jauche</desc>
<link href="https://chemins.be/enines/sentier/21"/><trkseg>
<trkpt lat="50.693674" lon="4.926509"><time>2026-05-10T02:22:11Z</time></trkpt>
<trkpt lat="50.693643" lon="4.927311"><time>2026-05-10T02:32:11Z</time></trkpt>
<trkpt lat="50.693587" lon="4.927696"><time>2026-05-10T02:42:11Z</time></trkpt>
</trkseg></trk>
<trk>
<name>bojen21</name>
<cmt>r</cmt>
<desc>Enines Sentier n°21 Vieux chemin de Jauche</desc>
<link href="https://chemins.be/enines/sentier/21"/><trkseg>
<trkpt lat="50.693587" lon="4.927696"><time>2026-05-10T02:42:11Z</time></trkpt>
<trkpt lat="50.693402" lon="4.928962"><time>2026-05-10T02:52:11Z</time></trkpt>
<trkpt lat="50.693589" lon="4.930115"><time>2026-05-10T03:02:11Z</time></trkpt>
</trkseg>
</trk>
<trk>
<name>bojen22</name>
<cmt>v</cmt>
<desc>Enines Chemin n°22 </desc>
<link href="https://chemins.be/enines/chemin/22"/><trkseg>
<trkpt lat="50.693468" lon="4.930501"><time>2026-05-10T02:22:11Z</time></trkpt>
<trkpt lat="50.691412" lon="4.934544"><time>2026-05-10T02:32:11Z</time></trkpt>
<trkpt lat="50.690904" lon="4.936174"><time>2026-05-10T02:42:11Z</time></trkpt>
</trkseg></trk>
<trk>
<name>bojen22</name>
<cmt>d</cmt>
<desc>Enines Chemin n°22 </desc>
<link href="https://chemins.be/enines/chemin/22"/><trkseg>
<trkpt lat="50.690904" lon="4.936174"><time>2026-05-10T02:42:11Z</time></trkpt>
<trkpt lat="50.690567" lon="4.937612"><time>2026-05-10T02:52:11Z</time></trkpt>
<trkpt lat="50.690050" lon="4.939041"><time>2026-05-10T03:02:11Z</time></trkpt>
<trkpt lat="50.690012" lon="4.940063"><time>2026-05-10T03:12:11Z</time></trkpt>
</trkseg>
</trk>
<trk>
<name>bojen24</name>
<cmt>d</cmt>
<desc>Enines Sentier n°24 </desc>
<link href="https://chemins.be/enines/sentier/24"/><trkseg>
<trkpt lat="50.695160" lon="4.929181"><time>2026-05-10T02:22:11Z</time></trkpt>
<trkpt lat="50.696057" lon="4.930286"><time>2026-05-10T02:32:11Z</time></trkpt>
</trkseg>
</trk>
<trk>
<name>bojen25</name>
<cmt>v</cmt>
<desc>Enines Chemin n°25 </desc>
<link href="https://chemins.be/enines/chemin/25"/><trkseg>
<trkpt lat="50.689499" lon="4.927947"><time>2026-05-10T02:22:11Z</time></trkpt>
<trkpt lat="50.688724" lon="4.928377"><time>2026-05-10T02:32:11Z</time></trkpt>
<trkpt lat="50.686548" lon="4.928366"><time>2026-05-10T02:42:11Z</time></trkpt>
<trkpt lat="50.684030" lon="4.926140"><time>2026-05-10T02:52:11Z</time></trkpt>
<trkpt lat="50.683771" lon="4.926172"><time>2026-05-10T03:02:11Z</time></trkpt>
<trkpt lat="50.683391" lon="4.926022"><time>2026-05-10T03:12:11Z</time></trkpt>
</trkseg>
</trk>
<trk>
<name>bojen26</name>
<cmt>q</cmt>
<desc>Enines Sentier n°26 </desc>
<link href="https://chemins.be/enines/sentier/26"/><trkseg>
<trkpt lat="50.696882" lon="4.927209"><time>2026-05-10T02:22:11Z</time></trkpt>
<trkpt lat="50.697611" lon="4.925033"><time>2026-05-10T02:32:11Z</time></trkpt>
</trkseg>
</trk>
<trk>
<name>bojen27</name>
<cmt>v</cmt>
<desc>Enines Sentier n°27 </desc>
<link href="https://chemins.be/enines/sentier/27"/><trkseg>
<trkpt lat="50.693468" lon="4.930426"><time>2026-05-10T02:22:11Z</time></trkpt>
<trkpt lat="50.693982" lon="4.931203"><time>2026-05-10T02:32:11Z</time></trkpt>
<trkpt lat="50.695010" lon="4.932754"><time>2026-05-10T02:42:11Z</time></trkpt>
</trkseg>
</trk>
<trk>
<name>bojen28</name>
<cmt>s</cmt>
<desc>Enines Sentier n°28 </desc>
<link href="https://chemins.be/enines/sentier/28"/><trkseg>
<trkpt lat="50.701276" lon="4.924749"><time>2026-05-10T02:22:11Z</time></trkpt>
<trkpt lat="50.700265" lon="4.927092"><time>2026-05-10T02:32:11Z</time></trkpt>
<trkpt lat="50.699641" lon="4.928273"><time>2026-05-10T02:42:11Z</time></trkpt>
<trkpt lat="50.698266" lon="4.929428"><time>2026-05-10T02:52:11Z</time></trkpt>
<trkpt lat="50.696089" lon="4.930200"><time>2026-05-10T03:02:11Z</time></trkpt>
</trkseg>
</trk>
<trk>
<name>bojen29</name>
<cmt>q</cmt>
<desc>Enines Sentier n°29 </desc>
<link href="https://chemins.be/enines/sentier/29"/><trkseg>
<trkpt lat="50.695479" lon="4.927572"><time>2026-05-10T02:22:11Z</time></trkpt>
<trkpt lat="50.696240" lon="4.929847"><time>2026-05-10T02:32:11Z</time></trkpt>
</trkseg>
</trk>
<trk>
<name>bojen3</name>
<cmt>r</cmt>
<desc>Enines Chemin n°3 Rue Bourgmestre Dandoy</desc>
<link href="https://chemins.be/enines/chemin/3"/><trkseg>
<trkpt lat="50.690825" lon="4.921534"><time>2026-05-10T02:22:11Z</time></trkpt>
<trkpt lat="50.689915" lon="4.920164"><time>2026-05-10T02:32:11Z</time></trkpt>
<trkpt lat="50.689449" lon="4.919805"><time>2026-05-10T02:42:11Z</time></trkpt>
</trkseg></trk>
<trk>
<name>bojen3</name>
<cmt>v</cmt>
<desc>Enines Chemin n°3 Rue Bourgmestre Dandoy</desc>
<link href="https://chemins.be/enines/chemin/3"/><trkseg>
<trkpt lat="50.689449" lon="4.919805"><time>2026-05-10T02:42:11Z</time></trkpt>
<trkpt lat="50.687393" lon="4.917276"><time>2026-05-10T02:52:11Z</time></trkpt>
<trkpt lat="50.685619" lon="4.913363"><time>2026-05-10T03:02:11Z</time></trkpt>
<trkpt lat="50.685499" lon="4.912732"><time>2026-05-10T03:12:11Z</time></trkpt>
<trkpt lat="50.685551" lon="4.911655"><time>2026-05-10T03:22:11Z</time></trkpt>
</trkseg>
</trk>
<trk>
<name>bojen30</name>
<cmt>q</cmt>
<desc>Enines Sentier n°30 </desc>
<link href="https://chemins.be/enines/sentier/30"/><trkseg>
<trkpt lat="50.699025" lon="4.925805"><time>2026-05-10T02:22:11Z</time></trkpt>
<trkpt lat="50.699286" lon="4.925067"><time>2026-05-10T02:32:11Z</time></trkpt>
<trkpt lat="50.699417" lon="4.925075"><time>2026-05-10T02:42:11Z</time></trkpt>
<trkpt lat="50.699650" lon="4.923282"><time>2026-05-10T02:52:11Z</time></trkpt>
<trkpt lat="50.699422" lon="4.921917"><time>2026-05-10T03:02:11Z</time></trkpt>
</trkseg></trk>
<trk>
<name>bojen30</name>
<cmt>v</cmt>
<desc>Enines Sentier n°30 </desc>
<link href="https://chemins.be/enines/sentier/30"/><trkseg>
<trkpt lat="50.699422" lon="4.921917"><time>2026-05-10T03:02:11Z</time></trkpt>
<trkpt lat="50.700661" lon="4.921204"><time>2026-05-10T03:12:11Z</time></trkpt>
</trkseg></trk>
<trk>
<name>bojen30</name>
<cmt>q</cmt>
<desc>Enines Sentier n°30 </desc>
<link href="https://chemins.be/enines/sentier/30"/><trkseg>
<trkpt lat="50.700661" lon="4.921204"><time>2026-05-10T03:12:11Z</time></trkpt>
<trkpt lat="50.701243" lon="4.919960"><time>2026-05-10T03:22:11Z</time></trkpt>
<trkpt lat="50.702158" lon="4.918755"><time>2026-05-10T03:32:11Z</time></trkpt>
</trkseg>
</trk>
<trk>
<name>bojen31</name>
<cmt>q</cmt>
<desc>Enines Sentier n°31 </desc>
<link href="https://chemins.be/enines/sentier/31"/><trkseg>
<trkpt lat="50.690613" lon="4.921167"><time>2026-05-10T02:22:11Z</time></trkpt>
<trkpt lat="50.691157" lon="4.917583"><time>2026-05-10T02:32:11Z</time></trkpt>
<trkpt lat="50.691347" lon="4.913270"><time>2026-05-10T02:42:11Z</time></trkpt>
</trkseg>
</trk>
<trk>
<name>bojen32</name>
<cmt>q</cmt>
<desc>Enines Sentier n°32 </desc>
<link href="https://chemins.be/enines/sentier/32"/><trkseg>
<trkpt lat="50.689545" lon="4.927512"><time>2026-05-10T02:22:11Z</time></trkpt>
<trkpt lat="50.690222" lon="4.926688"><time>2026-05-10T02:32:11Z</time></trkpt>
<trkpt lat="50.690524" lon="4.925431"><time>2026-05-10T02:42:11Z</time></trkpt>
<trkpt lat="50.690290" lon="4.924894"><time>2026-05-10T02:52:11Z</time></trkpt>
</trkseg>
</trk>
<trk>
<name>bojen33</name>
<cmt>d</cmt>
<desc>Enines Sentier n°33 </desc>
<link href="https://chemins.be/enines/sentier/33"/><trkseg>
<trkpt lat="50.696241" lon="4.929857"><time>2026-05-10T02:22:11Z</time></trkpt>
<trkpt lat="50.697218" lon="4.930797"><time>2026-05-10T02:32:11Z</time></trkpt>
</trkseg></trk>
<trk>
<name>bojen33</name>
<cmt>q</cmt>
<desc>Enines Sentier n°33 </desc>
<link href="https://chemins.be/enines/sentier/33"/><trkseg>
<trkpt lat="50.697218" lon="4.930797"><time>2026-05-10T02:32:11Z</time></trkpt>
<trkpt lat="50.698177" lon="4.931719"><time>2026-05-10T02:42:11Z</time></trkpt>
</trkseg>
</trk>
<trk>
<name>bojen34</name>
<cmt>q</cmt>
<desc>Enines Sentier n°34 </desc>
<link href="https://chemins.be/enines/sentier/34"/><trkseg>
<trkpt lat="50.694480" lon="4.926467"><time>2026-05-10T02:22:11Z</time></trkpt>
<trkpt lat="50.694983" lon="4.922551"><time>2026-05-10T02:32:11Z</time></trkpt>
<trkpt lat="50.694834" lon="4.920185"><time>2026-05-10T02:42:11Z</time></trkpt>
</trkseg>
</trk>
<trk>
<name>bojen35</name>
<cmt>r</cmt>
<desc>Enines Sentier n°35 </desc>
<link href="https://chemins.be/enines/sentier/35"/><trkseg>
<trkpt lat="50.688642" lon="4.924552"><time>2026-05-10T02:22:11Z</time></trkpt>
<trkpt lat="50.688343" lon="4.925158"><time>2026-05-10T02:32:11Z</time></trkpt>
</trkseg>
</trk>
<trk>
<name>bojen36</name>
<cmt>q</cmt>
<desc>Enines Sentier n°36 </desc>
<link href="https://chemins.be/enines/sentier/36"/><trkseg>
<trkpt lat="50.694354" lon="4.926467"><time>2026-05-10T02:22:11Z</time></trkpt>
<trkpt lat="50.694548" lon="4.927046"><time>2026-05-10T02:32:11Z</time></trkpt>
<trkpt lat="50.694236" lon="4.929600"><time>2026-05-10T02:42:11Z</time></trkpt>
</trkseg>
</trk>
<trk>
<name>bojen37</name>
<cmt>q</cmt>
<desc>Enines Sentier n°37 </desc>
<link href="https://chemins.be/enines/sentier/37"/><trkseg>
<trkpt lat="50.694134" lon="4.926381"><time>2026-05-10T02:22:11Z</time></trkpt>
<trkpt lat="50.693930" lon="4.925008"><time>2026-05-10T02:32:11Z</time></trkpt>
</trkseg></trk>
<trk>
<name>bojen37</name>
<cmt>v</cmt>
<desc>Enines Sentier n°37 </desc>
<link href="https://chemins.be/enines/sentier/37"/><trkseg>
<trkpt lat="50.693930" lon="4.925008"><time>2026-05-10T02:32:11Z</time></trkpt>
<trkpt lat="50.693617" lon="4.924117"><time>2026-05-10T02:42:11Z</time></trkpt>
</trkseg></trk>
<trk>
<name>bojen37</name>
<cmt>q</cmt>
<desc>Enines Sentier n°37 </desc>
<link href="https://chemins.be/enines/sentier/37"/><trkseg>
<trkpt lat="50.693617" lon="4.924117"><time>2026-05-10T02:42:11Z</time></trkpt>
<trkpt lat="50.692625" lon="4.922658"><time>2026-05-10T02:52:11Z</time></trkpt>
<trkpt lat="50.692526" lon="4.922342"><time>2026-05-10T03:02:11Z</time></trkpt>
</trkseg>
</trk>
<trk>
<name>bojen38</name>
<cmt>q</cmt>
<desc>Enines Sentier n°38 </desc>
<link href="https://chemins.be/enines/sentier/38"/><trkseg>
<trkpt lat="50.693882" lon="4.922765"><time>2026-05-10T02:22:11Z</time></trkpt>
<trkpt lat="50.693977" lon="4.920321"><time>2026-05-10T02:32:11Z</time></trkpt>
<trkpt lat="50.693787" lon="4.917875"><time>2026-05-10T02:42:11Z</time></trkpt>
</trkseg>
</trk>
<trk>
<name>bojen39</name>
<cmt>q</cmt>
<desc>Enines Sentier n°39 </desc>
<link href="https://chemins.be/enines/sentier/39"/><trkseg>
<trkpt lat="50.687684" lon="4.922476"><time>2026-05-10T02:22:11Z</time></trkpt>
<trkpt lat="50.689417" lon="4.921049"><time>2026-05-10T02:32:11Z</time></trkpt>
<trkpt lat="50.689910" lon="4.920238"><time>2026-05-10T02:42:11Z</time></trkpt>
<trkpt lat="50.690871" lon="4.918656"><time>2026-05-10T02:52:11Z</time></trkpt>
<trkpt lat="50.692224" lon="4.919193"><time>2026-05-10T03:02:11Z</time></trkpt>
<trkpt lat="50.693165" lon="4.920030"><time>2026-05-10T03:12:11Z</time></trkpt>
</trkseg></trk>
<trk>
<name>bojen39</name>
<cmt>v</cmt>
<desc>Enines Sentier n°39 </desc>
<link href="https://chemins.be/enines/sentier/39"/><trkseg>
<trkpt lat="50.693165" lon="4.920030"><time>2026-05-10T03:12:11Z</time></trkpt>
<trkpt lat="50.694174" lon="4.920330"><time>2026-05-10T03:22:11Z</time></trkpt>
<trkpt lat="50.694881" lon="4.920148"><time>2026-05-10T03:32:11Z</time></trkpt>
</trkseg></trk>
<trk>
<name>bojen39</name>
<cmt>q</cmt>
<desc>Enines Sentier n°39 </desc>
<link href="https://chemins.be/enines/sentier/39"/><trkseg>
<trkpt lat="50.694881" lon="4.920148"><time>2026-05-10T03:32:11Z</time></trkpt>
<trkpt lat="50.695921" lon="4.920523"><time>2026-05-10T03:42:11Z</time></trkpt>
<trkpt lat="50.696485" lon="4.920448"><time>2026-05-10T03:52:11Z</time></trkpt>
</trkseg>
</trk>
<trk>
<name>bojen4</name>
<cmt>v</cmt>
<desc>Enines Chemin n°4 </desc>
<link href="https://chemins.be/enines/chemin/4"/><trkseg>
<trkpt lat="50.691265" lon="4.913077"><time>2026-05-10T02:22:11Z</time></trkpt>
<trkpt lat="50.687949" lon="4.913249"><time>2026-05-10T02:32:11Z</time></trkpt>
<trkpt lat="50.686966" lon="4.911838"><time>2026-05-10T02:42:11Z</time></trkpt>
<trkpt lat="50.686718" lon="4.911419"><time>2026-05-10T02:52:11Z</time></trkpt>
<trkpt lat="50.686583" lon="4.911329"><time>2026-05-10T03:02:11Z</time></trkpt>
<trkpt lat="50.686306" lon="4.911267"><time>2026-05-10T03:12:11Z</time></trkpt>
<trkpt lat="50.685790" lon="4.911618"><time>2026-05-10T03:22:11Z</time></trkpt>
</trkseg>
</trk>
<trk>
<name>bojen40</name>
<cmt>s</cmt>
<desc>Enines Sentier n°40 </desc>
<link href="https://chemins.be/enines/sentier/40"/><trkseg>
<trkpt lat="50.687317" lon="4.938279"><time>2026-05-10T02:22:11Z</time></trkpt>
<trkpt lat="50.686807" lon="4.940565"><time>2026-05-10T02:32:11Z</time></trkpt>
</trkseg>
</trk>
<trk>
<name>bojen41</name>
<cmt>d</cmt>
<desc>Enines Sentier n°41 Sentier des Dièlères</desc>
<link href="https://chemins.be/enines/sentier/41"/><trkseg>
<trkpt lat="50.693454" lon="4.930490"><time>2026-05-10T02:22:11Z</time></trkpt>
<trkpt lat="50.693439" lon="4.931547"><time>2026-05-10T02:32:11Z</time></trkpt>
<trkpt lat="50.693414" lon="4.933204"><time>2026-05-10T02:42:11Z</time></trkpt>
<trkpt lat="50.693536" lon="4.934299"><time>2026-05-10T02:52:11Z</time></trkpt>
<trkpt lat="50.693719" lon="4.934674"><time>2026-05-10T03:02:11Z</time></trkpt>
<trkpt lat="50.693345" lon="4.935361"><time>2026-05-10T03:12:11Z</time></trkpt>
<trkpt lat="50.693468" lon="4.935892"><time>2026-05-10T03:22:11Z</time></trkpt>
<trkpt lat="50.693646" lon="4.936662"><time>2026-05-10T03:32:11Z</time></trkpt>
</trkseg></trk>
<trk>
<name>bojen41</name>
<cmt>v</cmt>
<desc>Enines Sentier n°41 Sentier des Dièlères</desc>
<link href="https://chemins.be/enines/sentier/41"/><trkseg>
<trkpt lat="50.693646" lon="4.936662"><time>2026-05-10T03:32:11Z</time></trkpt>
<trkpt lat="50.693916" lon="4.937829"><time>2026-05-10T03:42:11Z</time></trkpt>
<trkpt lat="50.694922" lon="4.938753"><time>2026-05-10T03:52:11Z</time></trkpt>
</trkseg></trk>
<trk>
<name>bojen41</name>
<cmt>d</cmt>
<desc>Enines Sentier n°41 Sentier des Dièlères</desc>
<link href="https://chemins.be/enines/sentier/41"/><trkseg>
<trkpt lat="50.694922" lon="4.938753"><time>2026-05-10T03:52:11Z</time></trkpt>
<trkpt lat="50.695716" lon="4.940853"><time>2026-05-10T04:02:11Z</time></trkpt>
</trkseg>
</trk>
<trk>
<name>bojen42</name>
<cmt>v</cmt>
<desc>Enines Sentier n°42 Rue Grand Roo</desc>
<link href="https://chemins.be/enines/sentier/42"/><trkseg>
<trkpt lat="50.690905" lon="4.927465"><time>2026-05-10T02:22:11Z</time></trkpt>
<trkpt lat="50.690652" lon="4.927773"><time>2026-05-10T02:32:11Z</time></trkpt>
<trkpt lat="50.689984" lon="4.928303"><time>2026-05-10T02:42:11Z</time></trkpt>
</trkseg>
</trk>
<trk>
<name>bojen7</name>
<cmt>v</cmt>
<desc>Enines Chemin n°7 </desc>
<link href="https://chemins.be/enines/chemin/7"/><trkseg>
<trkpt lat="50.696459" lon="4.922605"><time>2026-05-10T02:22:11Z</time></trkpt>
<trkpt lat="50.698661" lon="4.922390"><time>2026-05-10T02:32:11Z</time></trkpt>
<trkpt lat="50.700672" lon="4.921231"><time>2026-05-10T02:42:11Z</time></trkpt>
<trkpt lat="50.702738" lon="4.921875"><time>2026-05-10T02:52:11Z</time></trkpt>
</trkseg>
</trk>
<trk>
<name>bojeni1</name>
<cmt>v</cmt>
<desc>Enines Chemin n°i1 </desc>
<link href="https://chemins.be/enines/chemin/i1"/><trkseg>
<trkpt lat="50.698233" lon="4.929254"><time>2026-05-10T02:22:11Z</time></trkpt>
<trkpt lat="50.698877" lon="4.929753"><time>2026-05-10T02:32:11Z</time></trkpt>
</trkseg>
</trk>
<trk>
<name>bojeni2</name>
<cmt>r</cmt>
<desc>Enines Chemin n°i2 </desc>
<link href="https://chemins.be/enines/chemin/i2"/><trkseg>
<trkpt lat="50.690858" lon="4.936166"><time>2026-05-10T02:22:11Z</time></trkpt>
<trkpt lat="50.688194" lon="4.933763"><time>2026-05-10T02:32:11Z</time></trkpt>
</trkseg>
</trk>
<trk>
<name>bojeni3</name>
<cmt>v</cmt>
<desc>Enines Sentier n°i3 </desc>
<link href="https://chemins.be/enines/sentier/i3"/><trkseg>
<trkpt lat="50.691180" lon="4.927081"><time>2026-05-10T02:22:11Z</time></trkpt>
<trkpt lat="50.691648" lon="4.927896"><time>2026-05-10T02:32:11Z</time></trkpt>
</trkseg>
</trk>
<trk>
<name>bojeni4</name>
<cmt>v</cmt>
<desc>Enines Chemin n°i4 </desc>
<link href="https://chemins.be/enines/chemin/i4"/><trkseg>
<trkpt lat="50.694112" lon="4.935822"><time>2026-05-10T02:22:11Z</time></trkpt>
<trkpt lat="50.693745" lon="4.934766"><time>2026-05-10T02:32:11Z</time></trkpt>
</trkseg>
</trk>
</gpx>